FW5182 Weather Reports


Display with metric or nautical units.
time (UTC)temp
F
wind
direction
speed
MPH
gust
MPH
rain 1hr
in
rain 24hr
in
rain mn
in
humidity
%
barometer
mb
20260901231537 57 0.0 0.0 0.00 0.00 0.00 86 1007.1
20260901230026 58 0.0 0.0 0.00 0.00 0.00 86 1007.1
20260901224545 58 0.0 0.0 0.00 0.00 0.00 86 1007.0
20260901223024 58 0.0 0.0 0.00 0.00 0.00 86 1007.1
20260901221553 58 0.0 0.0 0.00 0.00 0.00 86 1007.1
20260901220022 59 0.0 0.0 0.00 0.00 0.00 86 1007.1
20260901211613 60 0.0 0.0 0.00 0.00 0.00 84 1007.1
20260901210018 60 0.0 0.0 0.00 0.00 0.00 84 1007.1
20260901204610 60 0.0 0.0 0.00 0.00 0.00 84 1007.1
20260901203111 60 0.0 0.0 0.00 0.00 0.00 84 1007.1
20260901201610 61 0.0 0.0 0.00 0.00 0.00 84 1007.2
20260901200015 61 0.0 0.0 0.00 0.00 0.00 84 1007.3
20260901193111 61 0.0 0.0 0.00 0.00 0.00 84 1007.2
20260901191606 62 0.0 0.0 0.00 0.00 0.00 83 1007.1
20260901190112 62 0.0 0.0 0.00 0.00 0.00 83 1007.2
20260901184604 62 0.0 0.0 0.00 0.00 0.00 83 1007.2
20260901183112 62 0.0 0.0 0.00 0.00 0.00 83 1007.3
20260901181602 63 0.0 0.0 0.00 0.00 0.00 82 1007.4
20260901180112 63 0.0 0.0 0.00 0.00 0.00 82 1007.1
20260901174558 64 0.0 0.0 0.00 0.00 0.00 81 1007.3
20260901173112 64 0.0 0.0 0.00 0.00 0.00 81 1007.4
20260901171700 65 0.0 0.0 0.00 0.00 0.00 80 1007.3
20260901164554 66 0.0 0.0 0.00 0.00 0.00 79 1007.1
20260901163112 66 0.0 0.0 0.00 0.00 0.00 78 1007.2
20260901161552 67 0.0 0.0 0.00 0.00 0.00 78 1007.3
20260901160111 67 0.0 0.0 0.00 0.00 0.00 76 1007.4
20260901154548 67 0.0 0.0 0.00 0.00 0.00 76 1007.4
20260901153053 68 0.0 0.0 0.00 0.00 0.00 75 1007.2
20260901151548 68 0.0 0.0 0.00 0.00 0.00 76 1007.6
20260901150058 68 0.0 0.0 0.00 0.00 0.00 75 1007.6
20260901144546 68 0.0 0.0 0.00 0.00 0.00 74 1007.5
20260901143106 68 0.0 0.0 0.00 0.00 0.00 74 1007.6
20260901140119 68 0.0 0.0 0.00 0.00 0.00 73 1007.9
20260901134522 68 0.0 0.0 0.00 0.00 0.00 73 1007.8
20260901133026 68 0.0 0.0 0.00 0.00 0.00 73 1007.9
20260901131531 68 0.0 0.0 0.00 0.00 0.00 73 1007.7
20260901130142 69 0.0 0.0 0.00 0.00 0.00 73 1007.8
20260901124540 69 0.0 0.0 0.00 0.00 0.00 73 1007.8
20260901123045 69 0.0 0.0 0.00 0.00 0.00 73 1008.0
20260901121538 68 0.0 0.0 0.00 0.00 0.00 73 1008.1
20260901120052 69 0.0 0.0 0.00 0.00 0.00 74 1008.1
20260901114534 68 0.0 0.0 0.00 0.00 0.00 73 1008.2
20260901113200 69 0.0 0.0 0.00 0.00 0.00 74 1008.3
20260901111533 69 0.0 0.0 0.00 0.00 0.00 74 1008.2
20260901110108 69 0.0 0.0 0.00 0.00 0.00 75 1008.3
20260901104517 68 0.0 0.0 0.00 0.00 0.00 75 1008.3
20260901103020 68 0.0 0.0 0.00 0.00 0.00 75 1008.2
20260901101523 68 0.0 0.0 0.00 0.00 0.00 75 1008.1
20260901100031 68 0.0 0.0 0.00 0.00 0.00 75 1008.0
20260901094530 69 0.0 0.0 0.00 0.00 0.00 76 1008.0
20260901093136 68 0.0 0.0 0.00 0.00 0.00 79 1008.0
20260901091524 68 0.0 0.0 0.00 0.00 0.00 80 1007.7
20260901090144 67 0.0 0.0 0.00 0.00 0.00 81 1007.7
20260901084524 66 0.0 0.0 0.00 0.00 0.00 81 1007.7
20260901083052 66 0.0 0.0 0.00 0.00 0.00 82 1007.9
20260901081522 67 0.0 0.0 0.00 0.00 0.00 82 1007.6
20260901080059 67 0.0 0.0 0.00 0.00 0.00 83 1007.4
20260901074519 66 0.0 0.0 0.00 0.00 0.00 84 1007.6
20260901073210 65 0.0 0.0 0.00 0.00 0.00 84 1007.6
20260901071518 66 0.0 0.0 0.00 0.00 0.00 86 1007.7
20260901070122 65 0.0 0.0 0.00 0.00 0.00 87 1007.5
20260901064516 65 0.0 0.0 0.00 0.00 0.00 88 1007.7
20260901063029 64 0.0 0.0 0.00 0.00 0.00 89 1007.7
20260901061531 63 0.0 0.0 0.00 0.00 0.00 90 1007.6
20260901060037 63 0.0 0.0 0.00 0.00 0.00 91 1007.5
20260901054539 62 0.0 0.0 0.00 0.00 0.00 91 1007.5
20260901053045 62 0.0 0.0 0.00 0.00 0.00 91 1007.6
20260901050056 61 0.0 0.0 0.00 0.00 0.00 91 1007.3
20260901044555 61 0.0 0.0 0.00 0.00 0.00 91 1007.7
20260901043103 61 0.0 0.0 0.00 0.00 0.00 91 1007.7
20260901041608 61 0.0 0.0 0.00 0.00 0.00 91 1007.5
20260901033121 60 0.0 0.0 0.00 0.00 0.00 90 1007.7
20260901031625 60 0.0 0.0 0.00 0.00 0.00 90 1007.4
20260901030129 60 0.0 0.0 0.00 0.00 0.00 90 1007.4
20260901024532 60 0.0 0.0 0.00 0.00 0.00 90 1007.5
20260901023037 59 0.0 0.0 0.00 0.00 0.00 89 1007.5
20260901014549 59 0.0 0.0 0.00 0.00 0.00 88 1007.6
20260901013052 59 0.0 0.0 0.00 0.00 0.00 88 1007.4
20260901011657 60 0.0 0.0 0.00 0.00 0.00 88 1007.4
20260901010046 60 0.0 0.0 0.00 0.00 0.00 88 1007.4
20260901004707 60 0.0 0.0 0.00 0.00 0.00 88 1007.5
20260901003044 61 0.0 0.0 0.00 0.00 0.00 88 1007.6
20260901001515 61 0.0 0.0 0.00 0.00 0.00 88 1007.6
20260901000121 61 0.0 0.0 0.00 0.00 0.00 88 1007.8
20260831234526 61 0.0 0.0 0.00 0.00 0.00 88 1007.6
20260831233030 61 0.0 0.0 0.00 0.00 0.00 87 1007.7